VKG172 EFHK-EETN

Flight info

Callsign VKG172
Flight time 0h 22m
Altitude 12000
Route RENKU
Aircraft A321/M-VGDW/C

Departure

Time 2026-04-21 18:30
Airport Helsinki Vantaa Airport (EFHK)

Arrival

Time 2026-04-21 18:52
Airport Lennart Meri Tallinn Airport (EETN)
Time Latitude Longitude Altitude Speed Heading
2026-04-21 18:16 60.31904 24.96966 187 ft 0 kts 243°
2026-04-21 18:21 60.31909 24.96984 187 ft 2 kts 244°
2026-04-21 18:21 60.31915 24.97010 187 ft 2 kts 241°
2026-04-21 18:21 60.31923 24.97037 186 ft 2 kts 242°
2026-04-21 18:22 60.31927 24.97066 186 ft 2 kts 278°
2026-04-21 18:22 60.31922 24.97094 186 ft 2 kts 314°
2026-04-21 18:22 60.31909 24.97110 187 ft 1 kts 340°
2026-04-21 18:22 60.31905 24.97113 187 ft 0 kts 336°
2026-04-21 18:24 60.31910 24.97109 187 ft 2 kts 335°
2026-04-21 18:24 60.31955 24.97059 185 ft 12 kts 332°
2026-04-21 18:24 60.32052 24.96956 181 ft 17 kts 331°
2026-04-21 18:24 60.32168 24.96823 176 ft 20 kts 330°
2026-04-21 18:25 60.32242 24.96685 178 ft 13 kts 262°
2026-04-21 18:25 60.32194 24.96546 182 ft 13 kts 226°
2026-04-21 18:25 60.32116 24.96376 185 ft 17 kts 227°
2026-04-21 18:25 60.32030 24.96186 184 ft 19 kts 228°
2026-04-21 18:26 60.31932 24.95969 180 ft 22 kts 227°
2026-04-21 18:26 60.31824 24.95732 176 ft 23 kts 227°
2026-04-21 18:26 60.31715 24.95491 176 ft 22 kts 228°
2026-04-21 18:26 60.31615 24.95272 181 ft 20 kts 227°
2026-04-21 18:27 60.31518 24.95058 178 ft 21 kts 227°
2026-04-21 18:27 60.31407 24.94815 168 ft 25 kts 227°
2026-04-21 18:27 60.31282 24.94535 163 ft 27 kts 228°
2026-04-21 18:27 60.31155 24.94259 164 ft 26 kts 227°
2026-04-21 18:28 60.31056 24.94039 164 ft 14 kts 232°
2026-04-21 18:28 60.31049 24.93834 161 ft 17 kts 300°
2026-04-21 18:28 60.31128 24.93689 161 ft 12 kts 348°
2026-04-21 18:28 60.31181 24.93747 159 ft 0 kts 45°
2026-04-21 18:29 60.31186 24.93758 159 ft 3 kts 45°
2026-04-21 18:29 60.31377 24.94182 165 ft 80 kts 47°
2026-04-21 18:29 60.31916 24.95367 182 ft 146 kts 47°
2026-04-21 18:29 60.32624 24.96946 707 ft 154 kts 46°
2026-04-21 18:30 60.33331 24.98510 1467 ft 152 kts 45°
2026-04-21 18:30 60.34026 25.00047 2166 ft 149 kts 44°
2026-04-21 18:30 60.34756 25.01646 2493 ft 163 kts 44°
2026-04-21 18:30 60.35559 25.03403 2811 ft 179 kts 44°
2026-04-21 18:31 60.36421 25.05300 3133 ft 194 kts 44°
2026-04-21 18:31 60.37371 25.07396 3475 ft 209 kts 44°
2026-04-21 18:31 60.38363 25.09608 3996 ft 215 kts 46°
2026-04-21 18:31 60.39103 25.12368 4253 ft 243 kts 73°
2026-04-21 18:32 60.39084 25.15907 4722 ft 267 kts 102°
2026-04-21 18:32 60.38334 25.19346 5477 ft 273 kts 113°
2026-04-21 18:32 60.37494 25.22780 6376 ft 275 kts 112°
2026-04-21 18:32 60.36662 25.26243 7242 ft 277 kts 112°
2026-04-21 18:33 60.35828 25.29769 8069 ft 281 kts 111°
2026-04-21 18:33 60.34977 25.33322 8941 ft 285 kts 115°
2026-04-21 18:33 60.33683 25.36322 9712 ft 297 kts 143°
2026-04-21 18:33 60.31762 25.37791 10465 ft 305 kts 171°
2026-04-21 18:34 60.29605 25.37892 10973 ft 319 kts 180°
2026-04-21 18:34 60.27342 25.37778 11551 ft 330 kts 180°
2026-04-21 18:34 60.25058 25.37577 11984 ft 334 kts 186°
2026-04-21 18:34 60.22824 25.36407 12067 ft 335 kts 202°
2026-04-21 18:35 60.21454 25.34960 12063 ft 334 kts 213°
2026-04-21 18:35 60.18917 25.31453 12051 ft 333 kts 216°
2026-04-21 18:35 60.17018 25.28723 12068 ft 333 kts 216°
2026-04-21 18:35 60.15134 25.26041 12081 ft 333 kts 216°
2026-04-21 18:36 60.13255 25.23401 12071 ft 333 kts 216°
2026-04-21 18:36 60.11364 25.20770 12098 ft 334 kts 216°
2026-04-21 18:36 60.09442 25.18115 12085 ft 334 kts 215°
2026-04-21 18:36 60.07545 25.15506 12063 ft 334 kts 215°
2026-04-21 18:37 60.05640 25.12892 12089 ft 334 kts 215°
2026-04-21 18:37 60.03730 25.10276 12082 ft 334 kts 215°
2026-04-21 18:37 60.01803 25.07642 12074 ft 334 kts 215°
2026-04-21 18:37 59.99907 25.05052 12075 ft 334 kts 215°
2026-04-21 18:38 59.97997 25.02449 12077 ft 334 kts 215°
2026-04-21 18:38 59.96084 24.99845 12075 ft 333 kts 215°
2026-04-21 18:38 59.94165 24.97237 11777 ft 335 kts 215°
2026-04-21 18:38 59.92245 24.94632 11318 ft 333 kts 215°
2026-04-21 18:39 59.90360 24.92080 10853 ft 332 kts 214°
2026-04-21 18:39 59.88308 24.89989 10394 ft 330 kts 199°
2026-04-21 18:39 59.86112 24.89172 10101 ft 321 kts 184°
2026-04-21 18:39 59.83922 24.88913 10072 ft 304 kts 182°
2026-04-21 18:40 59.81865 24.88742 10057 ft 288 kts 180°
2026-04-21 18:40 59.79923 24.89224 9809 ft 280 kts 161°
2026-04-21 18:40 59.78757 24.90177 9621 ft 275 kts 149°
2026-04-21 18:40 59.76585 24.92699 9253 ft 268 kts 145°
2026-04-21 18:41 59.75017 24.94608 8978 ft 264 kts 145°
2026-04-21 18:41 59.73449 24.96497 8713 ft 260 kts 146°
2026-04-21 18:41 59.71920 24.98308 8456 ft 256 kts 146°
2026-04-21 18:41 59.70403 25.00085 8200 ft 253 kts 146°
2026-04-21 18:42 59.68906 25.01826 7944 ft 249 kts 146°
2026-04-21 18:42 59.67412 25.03555 7671 ft 246 kts 146°
2026-04-21 18:42 59.65948 25.05247 7360 ft 245 kts 146°
2026-04-21 18:42 59.64489 25.06931 7052 ft 244 kts 146°
2026-04-21 18:43 59.63036 25.08607 6741 ft 243 kts 146°
2026-04-21 18:43 59.61588 25.10274 6453 ft 242 kts 146°
2026-04-21 18:43 59.60129 25.11954 6154 ft 241 kts 146°
2026-04-21 18:43 59.58700 25.13597 5858 ft 239 kts 146°
2026-04-21 18:44 59.57271 25.15238 5560 ft 239 kts 146°
2026-04-21 18:44 59.55839 25.16880 5310 ft 236 kts 147°
2026-04-21 18:44 59.54425 25.18499 4973 ft 237 kts 147°
2026-04-21 18:44 59.53002 25.20127 4625 ft 238 kts 147°
2026-04-21 18:45 59.51573 25.21761 4275 ft 240 kts 147°
2026-04-21 18:45 59.50138 25.23377 3954 ft 241 kts 151°
2026-04-21 18:45 59.48515 25.24295 3611 ft 244 kts 174°
2026-04-21 18:45 59.46817 25.24334 3280 ft 245 kts 181°
2026-04-21 18:46 59.45119 25.24216 2942 ft 245 kts 181°
2026-04-21 18:46 59.43431 25.24100 2604 ft 243 kts 181°
2026-04-21 18:46 59.41779 25.23831 2260 ft 239 kts 198°
2026-04-21 18:46 59.40429 25.22165 2163 ft 222 kts 233°
2026-04-21 18:47 59.39847 25.19583 2145 ft 198 kts 270°
2026-04-21 18:47 59.40039 25.17112 2249 ft 181 kts 289°
2026-04-21 18:47 59.40434 25.14807 2236 ft 174 kts 293°
2026-04-21 18:47 59.40799 25.12674 2181 ft 156 kts 290°
2026-04-21 18:48 59.41014 25.10668 2147 ft 146 kts 283°
2026-04-21 18:48 59.41128 25.08687 2162 ft 147 kts 280°
2026-04-21 18:48 59.41224 25.06689 2152 ft 147 kts 278°
2026-04-21 18:48 59.41275 25.04716 1986 ft 146 kts 276°
2026-04-21 18:49 59.41291 25.02715 1785 ft 145 kts 275°
2026-04-21 18:49 59.41292 25.00770 1582 ft 139 kts 274°
2026-04-21 18:49 59.41291 24.99523 1456 ft 138 kts 274°
2026-04-21 18:49 59.41294 24.97029 1217 ft 137 kts 273°
2026-04-21 18:50 59.41297 24.95160 1035 ft 137 kts 272°
2026-04-21 18:50 59.41301 24.93294 852 ft 137 kts 272°
2026-04-21 18:50 59.41304 24.91435 666 ft 136 kts 271°
2026-04-21 18:50 59.41309 24.89579 481 ft 136 kts 271°
2026-04-21 18:51 59.41313 24.87716 293 ft 134 kts 270°
2026-04-21 18:51 59.41318 24.85934 151 ft 127 kts 270°
2026-04-21 18:51 59.41322 24.84440 151 ft 90 kts 270°
2026-04-21 18:51 59.41326 24.83410 151 ft 66 kts 270°
2026-04-21 18:52 59.41328 24.82548 148 ft 60 kts 270°
2026-04-21 18:52 59.41329 24.81751 144 ft 52 kts 270°
2026-04-21 18:52 59.41334 24.81214 148 ft 35 kts 270°
2026-04-21 18:52 59.41337 24.80773 151 ft 25 kts 279°
2026-04-21 18:53 59.41403 24.80549 152 ft 13 kts 315°
2026-04-21 18:53 59.41440 24.80489 153 ft 0 kts 330°
2026-04-21 18:53 59.41447 24.80484 153 ft 4 kts 342°
2026-04-21 18:53 59.41483 24.80484 154 ft 5 kts 12°
2026-04-21 18:54 59.41537 24.80508 155 ft 8 kts
2026-04-21 18:54 59.41602 24.80514 156 ft 13 kts
2026-04-21 18:54 59.41685 24.80505 159 ft 11 kts 342°
2026-04-21 18:54 59.41733 24.80422 159 ft 9 kts 290°
2026-04-21 18:55 59.41744 24.80339 159 ft 9 kts 281°
2026-04-21 18:55 59.41742 24.80216 159 ft 5 kts 225°
2026-04-21 18:55 59.41701 24.80199 158 ft 3 kts 181°
2026-04-21 18:55 59.41695 24.80199 158 ft 0 kts 181°